Regional Weather Roundup
Issued by NWS

Home | Current Version | Previous Version | Graphics & Text | Print | Product List | Glossary On
Versions: 1 2 3 4 5 6 7 8 9 10 11 12 13 14 15 16 17 18 19 20 21 22 23 24 25 26 27 28 29 30 31 32 33 34 35 36 37 38 39 40 41 42 43 44 45 46 47 48 49 50
000
ASUS43 KIND 011159
RWRIN

WEATHER ROUNDUP FOR INDIANA
NATIONAL WEATHER SERVICE INDIANAPOLIS IN
800 AM EDT SUN MAY 01 2016

NOTE: "FAIR" INDICATES FEW OR NO CLOUDS BELOW 12,000 FEET WITH NO
SIGNIFICANT WEATHER AND/OR OBSTRUCTIONS TO VISIBILITY.

* - STATION DOES NOT REPORT WEATHER SUCH AS PRECIPITATION OR FOG.

+ - STATION NOT QUALITY CONTROLLED BY THE NATIONAL WEATHER SERVICE.
    USE DATA WITH CAUTION...ESPECIALLY DEWPOINT AND RELATIVE
    HUMIDITY OBSERVATIONS.

INZ001>003-010>013-019-020-011300-
NORTHWEST INDIANA

CITY           SKY/WX    TMP DP  RH WIND       PRES   REMARKS
GARY /AIRPORT/ CLOUDY    46  46 100 N9        29.94R FOG

$$

LMZ046-743>745-011300-
SOUTHERN LAKE MICHIGAN

STATION/POSITION TIME  TEMP    WIND        PRES    WAVE
                       AIR SEA DIR/SP/G            HT
                 (UTC) (F)     (DEG/KT/KT) (MB)    (FT)
BURNS HARBOR     1112   46      30/ 12/ 13 1013.5R

$$

INZ004-005-014>016-021>024-011300-
NORTH CENTRAL INDIANA

CITY           SKY/WX    TMP DP  RH WIND       PRES   REMARKS
GOSHEN         CLOUDY    49  48  97 NE3       29.92R FOG
6HR MIN TEMP:  48; 6HR MAX TEMP:  49;

PERU/GRISSOM   CLOUDY    52  52 100 NE2       29.88R FOG
SOUTH BEND     CLOUDY    48  48 100 NE5       29.92S FOG
6HR MIN TEMP:  47; 6HR MAX TEMP:  48;


$$

INZ006>009-017-018-025>027-011300-
NORTHEAST INDIANA

CITY           SKY/WX    TMP DP  RH WIND       PRES   REMARKS
ANGOLA *+      CLOUDY    48  48 100 E5        29.90S
FORT WAYNE     FOG       50  49  96 E8        29.91S VSB 1/2
6HR MIN TEMP:  49; 6HR MAX TEMP:  50; 6HR PCP: TRACE;


$$

INZ028-029-035-036-043>045-051>053-011300-
WEST CENTRAL INDIANA

CITY           SKY/WX    TMP DP  RH WIND       PRES   REMARKS
LAFAYETTE      FOG       53  53 100 N5        29.89R VSB 1/4
6HR MIN TEMP:  52; 6HR MAX TEMP:  55;

TERRE HAUTE    MOSUNNY   57  55  93 CALM      29.89R
6HR MIN TEMP:  57; 6HR MAX TEMP:  64; 6HR PCP: TRACE;


$$

INZ030>032-037>040-046>048-054>057-064-065-011300-
CENTRAL INDIANA

CITY           SKY/WX    TMP DP  RH WIND       PRES   REMARKS
INDIANAPOLIS   CLOUDY    61  59  93 S7        29.88R
6HR MIN TEMP:  60; 6HR MAX TEMP:  62;

-EAGLE CREEK   MOSUNNY   61  60  97 CALM      29.87R FOG
6HR MIN TEMP:  60; 6HR MAX TEMP:  63;

KOKOMO *+      CLOUDY    54  48  82 NE5       29.90R VSB 1
6HR MIN TEMP:  52; 6HR MAX TEMP:  55;

SHELBYVILLE    PTSUNNY   63  60  90 S6        29.88R FOG
6HR MIN TEMP:  62; 6HR MAX TEMP:  64;


$$

INZ033-034-041-042-049-050-058-059-011300-
EAST CENTRAL INDIANA

CITY           SKY/WX    TMP DP  RH WIND       PRES   REMARKS
MUNCIE         CLOUDY    63  60  90 S3        29.89R FOG
6HR MIN TEMP:  63; 6HR MAX TEMP:  64;


$$

INZ060-061-067>069-081>083-085>088-011300-
SOUTHWEST INDIANA

CITY           SKY/WX    TMP DP  RH WIND       PRES   REMARKS
EVANSVILLE     MOSUNNY   58  55  90 CALM      29.88F
6HR MIN TEMP:  54; 6HR MAX TEMP:  64;

HUNTINGBURG *+ SUNNY     59  57  94 SE6       29.88F
6HR MIN TEMP:  57; 6HR MAX TEMP:  64;


$$

INZ062-063-066-070>080-084-089>092-011300-
SOUTH CENTRAL AND SOUTHEAST INDIANA

CITY           SKY/WX    TMP DP  RH WIND       PRES   REMARKS
BLOOMINGTON    CLOUDY    59  57  93 S5        29.89R
6HR MIN TEMP:  57; 6HR MAX TEMP:  63; 6HR PCP: TRACE;

MADISON *+     SUNNY     61  59  94 CALM      29.94R

$$





USA.gov is the U.S. government's official web portal to all federal, state and local government web resources and services.